Regional Weather Roundup
Issued by NWS Upton, NY

Current Version | Previous Version | Graphics & Text | Print | Product List | Glossary Off
Versions: 1 2 3 4 5 6 7 8 9 10 11 12 13 14 15 16 17 18 19 20 21 22 23 24 25 26 27 28 29 30 31 32 33 34 35 36 37 38 39 40 41 42 43 44 45 46 47 48 49 50

000
ASUS41 KOKX 300905
RWROKX

REGIONAL WEATHER ROUNDUP
NATIONAL WEATHER SERVICE NEW YORK NY
500 AM EDT TUE SEP 30 2014

NOTE: "FAIR" INDICATES FEW OR NO CLOUDS BELOW 12,000 FEET WITH NO
SIGNIFICANT WEATHER AND/OR OBSTRUCTIONS TO VISIBILITY.

NYZ071-072-176-178-NJZ106-104-301000-
NEW YORK CITY METRO AREA


CITY           SKY/WX    TMP DP  RH WIND       PRES   REMARKS
CENTRAL PARK   CLOUDY    69  56  62 NW3       29.94F
LAGUARDIA APRT CLOUDY    70  57  63 CALM      29.91F
KENNEDY INTL   CLOUDY    68  63  84 CALM      29.92F
NEWARK/LIBERTY CLOUDY    68  62  81 CALM      29.92S
BRNX BOT. GARD   N/A     66  61  82 NE1       29.94R
TETERBORO      CLOUDY    67  59  75 CALM      29.91F
$$

NYZ177-179-078>081-301000-
LONG ISLAND NEW YORK

CITY           SKY/WX    TMP DP  RH WIND       PRES   REMARKS
FARMINGDALE    CLOUDY    67  63  87 CALM      29.93S
ISLIP          CLOUDY    66  64  93 E7        29.92S FOG
SHIRLEY        CLOUDY    66  64  93 E3        29.94S FOG
WESTHAMPTON    CLOUDY    65  63  93 E6        29.96S FOG
MONTAUK POINT    N/A     63  61  93 NE6       29.97S
$$

NYZ052-065-067-301000-
HUDSON VALLEY

CITY           SKY/WX    TMP DP  RH WIND       PRES   REMARKS
WHITE PLAINS     N/A     65  64  97 E5        29.93S FOG
NEWBURGH       PTCLDY    63  61  94 CALM      29.94S FOG
MONTGOMERY     FOG       54  53  97 CALM      29.93S VSB 3/4
POUGHKEEPSIE   MOCLDY    60  58  92 CALM      29.92S
ALBANY         PTCLDY    57  55  93 CALM      29.95R FOG
$$

NJZ001-105-106-008-010-013-015-019>022-104-301000-
NEW JERSEY

CITY           SKY/WX    TMP DP  RH WIND       PRES   REMARKS
NEWARK/LIBERTY CLOUDY    68  62  81 CALM      29.92S
TETERBORO      CLOUDY    67  59  75 CALM      29.91F
CALDWELL       CLOUDY    62  58  86 CALM      29.93S
MORRISTOWN     MOCLDY    61  57  88 CALM      29.92F FOG
SOMERVILLE     FOG       58  56  93 NW3       29.90F VSB 3/4
LINDEN         PTSUNNY   70  65  84 CALM      29.94R
SUSSEX         CLOUDY    59  57  93 CALM      29.94R
ANDOVER          N/A     56  55  97 CALM      29.94R
TRENTON        MOCLDY    62  59  90 CALM      29.92S
MILLVILLE      CLOUDY    63  62  97 CALM      29.91F
ATLANTIC CITY  CLOUDY    60  58  92 CALM      29.92F
WRIGHTSTOWN    CLOUDY    61  61 100 SE5       29.91S
TOMS RIVER     CLOUDY    61  55  82 CALM      29.93S
BELMAR         CLOUDY    63  57  82 SW3       29.93R
$$

PAZ047>061-062-071-301000-
EASTERN PENNSYLVANIA

CITY           SKY/WX    TMP DP  RH WIND       PRES   REMARKS
PHILADELPHIA   CLOUDY    66  61  84 CALM      29.92S
ALLENTOWN      FOG       56  55  97 CALM      29.92S VSB 1/4
SCRANTON       CLEAR     59  55  87 E6        29.92S FOG
$$

CTZ002-004>006-009-010-012-RIZ004-006-007-MAZ004-011-015-301000-
SOUTHERN NEW ENGLAND
 IN CT

CITY           SKY/WX    TMP DP  RH WIND       PRES   REMARKS
BRADLEY INTL   CLOUDY    60  54  80 NE9       29.97S
HARTFORD       CLOUDY    60  56  86 VRB7      29.98R
DANBURY        CLOUDY    64  62  93 E7        29.96S FOG
WTRBRY/OXFORD  CLOUDY    61  57  88 E6        29.98R
BRIDGEPORT     CLOUDY    66  63  90 E12       29.94S
MERIDEN        CLOUDY    61  57  87 NE7       29.97R
NEW HAVEN      CLOUDY    66  61  84 NE5       29.96R
CHESTER        CLOUDY    61  59  94 NE5       29.99R FOG
GROTON         CLOUDY    60  58  92 N6        29.97R
WILLIMANTIC    CLOUDY    59  55  87 E5        30.00R

 IN RI

CITY           SKY/WX    TMP DP  RH WIND       PRES   REMARKS
PROVIDENCE     CLOUDY    58  55  90 N10       29.99R
BLOCK ISLAND   CLOUDY    61  57  88 NE10G16   29.97R
WESTERLY       CLOUDY    60  57  89 N6        29.98R

 IN MA

CITY           SKY/WX    TMP DP  RH WIND       PRES   REMARKS
BOSTON         CLOUDY    57  55  93 N13       30.00S
WORCESTER        N/A     53  52  96 E9        30.01R VSB 1/4
WESTFIELD      CLOUDY    60  54  80 NE5       29.99R
PROVINCETOWN   CLOUDY    61  57  88 N12       29.97F
NANTUCKET      CLOUDY    62  60  93 N8        29.96R
$$

ANZ330-335-338-340-345-350-353-355-301000-
COASTAL MARINE OBSERVATIONS


STATION/POSITION TIME  SKY/WX   TEMP    WIND        PRES    VSBY  WAVE
                                AIR SEA DIR/SP/G                  HT/PER
                 (UTC)          (F)     (DEG/KT/KT) (MB)    (MI)  (FT/S)
NY HARB ENTRANCE 0900            69 68  200/ 10/ 12 1013.6          1/ 7
4S FIRE IS       0900               69                N/A           2/ 8
20S FIRE ISLAND  0900            68 68  340/  8/ 10 1012.8          2/ 8
23SW MTP         0900                                 N/A           2/ 8
HUDSON CANYON    0900            68 70  360/  6/  8 1013.1          2/ 8
EXECUTION ROCKS  0900            68 69   50/  6/  8   N/A
WESTERN LI SOUND 0800            69      90/  4/  4   N/A           0
CENTRAL LI SOUND 0900            64 68   90/ 12/ 16   N/A           2/ 3
EASTERN LI SOUND 0800            62 67   60/ 10/ 14   N/A
ROBBINS REEF     0900            67     180/  4/  4 1011.9
$$


>>>>>>>>>>>>>>>>>>>>>>>>>>>> KEY <<<<<<<<<<<<<<<<<<<<<<<<<<<
>                                                          <
>     SKY/WX - SKY CONDITION/PRESENT WEATHER               <
>     TMP    - TEMPERATURE IN FAHRENHEIT                   <
>     DP     - DEWPOINT IN FAHRENHEIT                      <
>     RH     - RELATIVE HUMIDITY IN PERCENT                <
>     WIND   - DIRECTION AND SPEED IN MPH                  <
>     PRES   - MEAN SEA LEVEL PRESSURE IN INCHES OF HG     <
>     WCI    - WIND CHILL INDEX                            <
>     VSB    - VISIBILITY IN MILES                         <
>     HX     - HEAT INDEX                                  <
>     TC     - TEMPERATURE IN CELSIUS                      <
>     VRB    - VARIABLE WIND DIRECTION                     <
>                                                          <
>>>>>>>>>>>>>>>>>>>>>>>>>>>> KEY <<<<<<<<<<<<<<<<<<<<<<<<<<<




USA.gov is the U.S. government's official web portal to all federal, state and local government web resources and services.